TimeCST,TemperatureF,Dew PointF,Humidity,Sea Level PressureIn,VisibilityMPH,Wind Direction,Wind SpeedMPH,Gust SpeedMPH,PrecipitationIn,Events,Conditions,WindDirDegrees,DateUTC
12:51 AM,27.0,19.9,75,30.26,10.0,Calm,Calm,-,N/A,,Clear,0,2012-12-12 06:51:00
1:51 AM,30.0,19.9,66,30.26,10.0,Calm,Calm,-,N/A,,Clear,0,2012-12-12 07:51:00
2:51 AM,30.9,19.0,61,30.27,10.0,Calm,Calm,-,N/A,,Clear,0,2012-12-12 08:51:00
3:51 AM,28.0,18.0,66,30.27,10.0,Calm,Calm,-,N/A,,Clear,0,2012-12-12 09:51:00
4:51 AM,28.0,18.0,66,30.29,10.0,Calm,Calm,-,N/A,,Clear,0,2012-12-12 10:51:00
5:51 AM,27.0,17.1,66,30.30,10.0,Calm,Calm,-,N/A,,Clear,0,2012-12-12 11:51:00
6:51 AM,26.6,17.6,69,30.29,10.0,Calm,Calm,-,N/A,,Clear,0,2012-12-12 12:51:00
7:51 AM,28.0,19.9,72,30.35,10.0,Calm,Calm,-,N/A,,Clear,0,2012-12-12 13:51:00
8:51 AM,36.0,21.9,57,30.36,10.0,Calm,Calm,-,N/A,,Clear,0,2012-12-12 14:51:00
9:51 AM,42.1,21.9,45,30.36,10.0,Calm,Calm,-,N/A,,Clear,0,2012-12-12 15:51:00
10:51 AM,46.0,21.9,39,30.36,10.0,South,5.8,-,N/A,,Clear,170,2012-12-12 16:51:00
11:51 AM,48.9,17.1,28,30.34,10.0,SSW,6.9,-,N/A,,Clear,200,2012-12-12 17:51:00
12:51 PM,51.8,15.8,24,30.29,10.0,SSW,8.1,-,N/A,,Clear,210,2012-12-12 18:51:00
1:51 PM,51.1,19.9,29,30.30,10.0,SSE,8.1,-,N/A,,Clear,160,2012-12-12 19:51:00
2:51 PM,50.0,19.9,31,30.29,10.0,SSE,10.4,-,N/A,,Partly Cloudy,160,2012-12-12 20:51:00
3:51 PM,48.9,21.0,33,30.29,10.0,SSE,5.8,-,N/A,,Partly Cloudy,150,2012-12-12 21:51:00
4:51 PM,45.0,21.0,39,30.30,10.0,SE,6.9,-,N/A,,Partly Cloudy,140,2012-12-12 22:51:00
5:51 PM,45.0,23.0,42,30.31,10.0,SE,11.5,-,N/A,,Partly Cloudy,140,2012-12-12 23:51:00
6:51 PM,44.1,24.1,45,30.31,10.0,SSE,11.5,-,N/A,,Clear,150,2012-12-13 00:51:00
7:51 PM,42.1,24.1,49,30.32,10.0,SSE,10.4,-,N/A,,Clear,150,2012-12-13 01:51:00
8:51 PM,41.0,24.1,51,30.31,10.0,SSE,10.4,-,N/A,,Clear,160,2012-12-13 02:51:00
9:51 PM,39.9,23.0,51,30.31,10.0,South,10.4,-,N/A,,Clear,170,2012-12-13 03:51:00
10:51 PM,39.0,23.0,53,30.32,10.0,SSE,8.1,-,N/A,,Clear,160,2012-12-13 04:51:00
11:51 PM,37.9,23.0,55,30.32,10.0,SSW,3.5,-,N/A,,Clear,200,2012-12-13 05:51:00